Back to catalog

STARLINK-31070

AliveCommunicationsVLEO
NORAD 58639·PAYLOAD·🇺🇸 United States

Launched Dec 23, 2023 from Cape Canaveral Space Force Station

Loading…

Next Passes (next 24 hours)

TLE

FreshSource: CelesTrak SupGP

Epoch: Sep 14, 2026, 22:05 UTC

1 58639C 23203X   26257.92062500  .00048267  00000+0  17488-2 0  2570
2 58639  43.0039  78.8022 0001427 276.2121 217.6406 15.27543821    19

Track STARLINK-31070 in real time with AllMySat

Download on the App Store